Meath Environmental Platform

Observations for Trim Market St

Time AQI Temp °C Hum % Pres Pa CO μg/m³ H₂S μg/m³ NO μg/m³ NO₂ μg/m³ O₃ μg/m³ SO₂ μg/m³ PM1 μg/m³ PM2.5 μg/m³ PM10 μg/m³
Wednesday 8 July 2026
20:55 1 27.7 54 57,887 0 8.38 0 10.91 15.43 0 2.85 5.36 6.8
20:51 1 27.9 53 57,866 0 7.87 0 10.82 12.8 0 0.71 4.37 5.34
20:50 1 28 53 57,855 0 11.52 0 13.6 11.89 0 2.14 4.88 6.8
20:49 1 28 53 57,840 0 11.36 0 16.21 18.82 0 2.14 4.89 6.07
20:48 1 28.1 53 57,823 0 11.62 0 14.81 14.43 0 2.14 5.41 6.8
20:47 1 28.2 52 57,797 0 12.13 0 16.59 17.42 0 2.14 4.9 6.8
20:46 1 28.2 52 57,765 0 9.86 0 11.23 5.6 0 2.85 4.92 6.06
20:45 1 28.3 52 57,723 0 13.11 0 16.81 20.67 0 2.85 4.92 6.06
20:44 1 28.4 52 57,668 0 11.99 0 16.62 12.97 0 2.85 4.42 5.32
20:43 1 28.4 52 57,598 0 12.25 0 15.82 12.22 0 2.85 4.94 6.79
20:42 1 28.5 52 57,506 0 12.41 0 15.53 16.75 0 1.43 4.44 5.32
20:41 1 28.5 51 57,393 0 12.7 0 15.56 19.15 0 2.85 5.99 9
20:40 1 28.6 51 57,282 0 12.43 0 14.02 9.92 0 2.14 4.45 5.31
20:39 1 28.7 51 57,167 0 12.99 0 16.39 19.06 0 0.71 3.94 4.58
20:38 1 28.7 51 57,029 0 12.29 0 14.12 16.05 0 1.43 4.46 5.31
20:33 1 29 50 56,740 0 13.96 0 17.7 11.74 0 2.14 4.49 5.3
20:32 1 29 50 56,644 0 15.03 0 18.62 15.59 0 2.14 5.01 6.04
20:27 1 29.3 50 56,115 0 13.12 0 17.43 15.02 0 2.14 5.05 6.03
20:26 1 29.4 49 56,034 0 13.01 0 14.63 13.58 0 1.43 4.03 4.53
20:20 1 29.8 48 55,762 0 12.35 0 15.34 21.67 0 2.85 5.11 6.77